Location: Hawks Ness
(60.2333°N, 1.1667°W)
Time: 20:24:27
(UTC+00:00)

CENTAUR R/B - Pass Details

Date: 22 October 2019
Orbit: 781 x 1407 km, 63.4° (Epoch: 10 November)

Event Time Altitude Azimuth Distance (km) Brightness Sun altitude
Exits shadow 02:09:14 47° 133° (SE) 1,688 3.6 -34.3°
Drops below altitude 10° 02:14:56 10° 127° (SE) 3,436 5.4 -33.8°
Sets 02:17:56 0° 127° (SE) 4,444 6.0 -33.6°
